User: anonymous   Login
Location: Unspecified
(0.0000°N, 0.0000°E)
Time: 14:52:03
(UTC+00:00)
Language:

MOZHAYETS 4 - Orbit

View from above orbital plane
View from above orbital plane
View from above satellite
View from above satellite

Ground track
Ground track

The orbit data is extracted from the following two-line orbital elements,

1 27939U 03042A   18203.23942698  .00000050  00000-0  17436-4 0  9996
2 27939  97.9952 341.4774 0013834  42.6116   6.9258 14.66701898791953
Epoch (UTC): 22 July 2018 05:44:46
Eccentricity: 0.0013834
inclination: 97.9952°
perigee height: 662 km
apogee height: 681 km
right ascension of ascending node: 341.4774°
argument of perigee: 42.6116°
revolutions per day: 14.66701898
mean anomaly at epoch: 6.9258°
orbit number at epoch: 79195

The dashed part of the orbit path shows where the satellite is in the earth's shadow,  

DLR